Temperature
12 12 12 12 12 12 12 12 13 14 15 14 13 13 12 12 12 12 12 12 13 13 14 14 14 14 14 14 14 14 14 14 14 15 15 15 15 15
12 12 12 12 12 12 12 12 12 13 13 14 13 13 12 12 12 12 12 12 13 13 13 13 13 13 13 14 14 14 14 14 14 14 15 15 15 15
12 12 12 12 12 12 12 12 12 12 12 13 13 12 11 11 11 11 11 11 12 12 12 13 13 13 13 13 13 13 14 14 14 14 14 14 14 15
13 13 12 12 12 12 12 12 12 12 12 12 12 12 11 11 11 11 11 12 12 12 12 12 12 13 13 13 13 13 13 13 13 14 14 14 14 14
13 13 13 12 12 12 12 12 12 12 11 11 12 12 12 11 11 11 11 11 11 12 12 12 12 12 12 13 13 13 13 13 13 13 13 13 14 14
14 13 13 13 13 12 12 12 12 12 11 11 12 12 12 11 11 11 11 12 11 12 12 11 11 12 12 12 12 12 12 13 13 13 13 13 13 13
14 14 14 14 13 13 12 12 12 11 12 12 12 12 12 12 12 12 12 12 11 11 11 11 11 11 12 12 12 12 12 12 12 12 12 13 13 13
14 14 14 14 14 14 14 13 12 11 11 12 12 12 12 12 11 11 11 12 12 12 11 11 11 11 11 11 11 11 11 12 12 12 12 12 13 13
14 14 14 14 14 14 14 14 13 13 12 12 11 11 12 11 11 11 11 11 11 11 11 11 11 11 11 11 11 11 11 11 11 12 12 12 12 12
14 14 14 14 14 13 13 13 13 13 13 12 12 12 11 11 10 10 10 10 10 10 10 10 11 11 11 11 11 11 11 11 11 11 12 12 12 12
14 13 13 13 14 13 13 12 12 12 12 12 12 12 12 11 11 10 10 10 11 11 11 10 11 11 11 11 11 11 11 11 11 11 12 12 12 12
13 13 13 13 13 13 13 12 12 12 12 12 11 11 12 11 11 10 10 10 11 11 11 11 11 11 11 11 11 11 10 10 11 11 11 11 11 12
12 12 13 12 12 12 12 12 12 12 11 11 11 11 11 11 10 10 10 10 10 11 11 11 10 10 10 11 11 11 11 11 10 10 11 11 11 11
11 11 12 12 12 12 12 12 12 11 11 11 11 11 11 11 11 10 10 10 10 10 10 10 10 10 10 10 11 11 11 11 10 10 10 10 10 11
10 10 10 11 11 11 11 11 11 11 10 10 11 11 11 11 11 11 10 9 9 9 9 9 9 9 9 10 10 10 10 10 10 10 10 10 10 10
9 9 9 10 10 10 10 10 10 10 10 10 10 11 11 11 11 11 10 10 9 9 9 9 9 9 9 9 9 10 10 10 10 10 10 10 10 10
8 8 8 9 9 10 10 10 10 10 10 10 10 10 10 10 11 10 10 10 10 10 10 10 9 9 9 9 9 9 10 10 10 10 9 10 10 10
7 7 8 8 9 9 10 10 10 10 9 9 9 10 10 10 10 10 10 10 10 10 10 10 10 9 8 8 9 9 9 10 10 10 9 10 10 10
7 7 8 8 8 9 9 9 9 9 9 9 9 9 9 9 10 9 9 9 9 9 10 10 10 9 9 9 9 9 9 9 9 10 10 10 10 10
7 7 7 7 8 8 8 8 9 9 9 9 9 9 9 9 9 9 9 9 9 9 9 9 9 9 9 9 10 10 10 9 9 9 10 10 10 10
6 6 6 7 7 7 7 7 7 8 8 8 8 8 8 8 8 9 9 9 9 9 9 9 9 9 9 8 8 9 9 9 9 9 9 9 10 10
5 5 5 6 6 6 6 7 7 7 7 8 8 8 8 8 8 8 8 8 8 8 9 9 9 8 8 8 8 9 9 9 9 9 8 8 9 9
4 4 5 5 5 6 6 6 6 7 7 7 7 7 8 8 8 8 8 8 8 8 8 8 8 8 8 8 8 8 8 8 8 8 8 9 9 9
Wind_Speed
6 6 6 4 5 5 5 6 6 7 5 3 4 3 4 6 4 8 8 3 5 7 8 8 8 9 10 11 11 12 14 17 19 21 23 24 25 26
6 6 7 7 5 6 6 6 6 7 8 5 5 6 5 9 6 8 10 8 12 11 10 9 10 11 11 12 13 13 14 15 17 19 21 23 25 26
9 9 9 9 7 7 7 7 7 8 9 9 8 6 6 9 9 9 11 11 11 13 11 10 11 12 13 13 14 15 16 17 17 18 20 21 23 24
11 10 10 9 10 9 8 9 9 8 10 11 10 9 9 9 9 10 11 12 12 8 11 12 14 14 15 15 16 16 17 18 18 18 19 20 22 23
12 12 12 11 11 10 10 10 9 9 10 11 11 9 9 9 9 10 11 10 13 13 13 17 18 18 17 17 18 18 18 19 19 20 20 20 21 22
13 13 13 13 13 13 11 12 11 11 11 11 12 10 9 9 9 10 10 9 10 11 11 11 14 17 19 19 20 19 19 19 18 19 20 20 21 22
14 15 15 15 14 13 12 12 12 12 12 12 12 11 10 9 9 9 10 9 10 10 10 11 11 13 15 20 23 22 20 19 18 19 20 21 21 22
15 15 15 16 17 18 17 16 15 15 14 13 13 13 12 11 10 10 10 11 11 9 9 10 10 11 11 14 13 15 18 18 18 19 20 21 22 23
16 15 15 15 17 17 19 22 21 22 20 18 17 16 14 12 12 13 12 12 12 10 10 12 12 13 12 14 12 13 16 18 20 21 21 22 22 23
18 18 18 17 17 17 17 18 19 19 20 20 20 19 17 14 13 13 14 13 14 13 13 14 13 13 13 13 14 18 20 22 23 23 22 22 22 23
19 19 19 19 18 17 18 19 19 18 18 20 20 19 17 14 12 12 13 13 14 13 12 13 13 13 13 13 14 18 22 23 23 23 22 22 21 20
16 18 19 21 20 17 19 20 21 20 18 17 18 20 21 20 19 18 17 16 15 15 12 12 13 12 13 12 11 10 14 19 23 23 23 22 20 15
15 15 15 16 20 20 19 20 21 18 17 17 17 17 17 17 18 19 18 17 17 16 13 11 12 13 13 12 12 11 11 11 12 16 21 24 22 17
14 15 14 11 12 16 17 19 20 17 16 17 17 17 17 16 16 17 18 19 18 18 15 14 13 13 14 15 14 12 12 11 12 12 12 14 20 23
13 16 17 17 14 14 18 20 18 16 17 18 19 18 17 16 15 13 16 16 18 19 20 19 17 15 15 16 16 14 13 12 12 13 13 13 12 12
13 14 16 19 18 17 16 16 16 17 17 18 18 18 16 15 15 15 15 14 16 16 19 21 19 18 17 18 16 16 15 14 13 12 12 13 13 13
14 15 16 16 15 15 15 16 16 16 17 18 17 17 16 16 16 15 14 15 16 16 15 15 17 17 19 17 16 16 15 15 14 13 13 15 15 14
14 16 17 17 17 17 17 16 16 16 16 16 17 17 16 16 16 15 15 15 16 16 15 14 13 13 14 15 17 18 17 16 15 14 15 15 16 14
14 16 17 17 17 17 17 17 17 16 15 15 16 16 15 16 15 15 15 15 16 16 15 14 14 14 15 16 16 19 18 16 15 14 14 15 16 15
14 15 15 15 16 16 16 16 16 15 14 15 16 15 15 15 15 15 15 16 16 15 15 14 15 15 16 16 15 13 17 17 15 15 15 14 15 14
14 14 14 14 14 15 15 14 15 14 15 14 14 14 14 14 15 16 16 16 16 16 16 16 14 15 13 12 14 15 14 17 17 15 15 14 15 14
14 14 14 14 14 13 13 14 14 14 14 14 13 13 13 14 16 17 16 15 15 16 17 15 13 12 13 15 16 16 16 14 15 19 19 17 16 15
14 14 14 14 13 12 12 13 15 13 12 12 12 12 12 13 13 13 14 15 14 14 15 14 13 12 13 14 15 15 18 17 14 14 15 19 22 22
Wind_Direction
236 225 243 249 249 259 266 273 284 291 288 236 249 230 263 284 299 288 286 276 291 288 284 280 274 267 259 254 254 253 252 248 246 246 244 243 241 239
248 255 251 254 248 250 254 257 261 274 283 289 276 278 297 298 269 276 277 266 256 254 262 271 271 268 265 259 255 253 254 255 253 250 248 245 243 240
237 237 238 253 254 251 246 250 254 258 269 277 277 271 265 275 285 280 274 271 260 224 235 259 267 267 266 263 260 258 256 257 257 255 252 249 247 245
237 238 240 237 237 249 252 251 253 258 264 275 280 277 263 261 265 270 273 270 273 236 226 248 258 261 262 263 262 261 260 259 259 259 256 252 250 248
239 239 239 240 239 241 242 249 251 249 250 264 271 273 271 264 266 264 265 264 269 260 233 235 243 249 255 257 258 259 258 258 259 259 258 255 252 250
241 242 242 239 239 241 241 244 250 256 254 257 265 267 263 259 258 265 268 255 257 267 267 259 244 239 244 248 250 251 252 254 257 260 260 257 255 252
240 241 241 240 240 240 245 244 242 246 253 255 259 263 262 260 261 264 269 273 265 262 266 264 255 248 240 235 236 239 242 247 252 256 259 258 256 254
243 242 242 235 233 229 239 248 252 249 252 257 260 261 263 263 262 266 271 271 271 264 262 266 266 266 262 259 243 223 230 243 251 255 257 257 255 254
245 245 246 243 231 235 229 229 238 242 246 251 258 261 263 257 259 259 256 263 271 279 276 272 269 266 263 260 237 226 236 246 253 256 257 256 255 253
248 246 246 249 243 238 240 238 237 236 232 235 245 253 256 260 255 254 265 265 263 258 256 265 269 268 267 264 241 225 235 243 249 253 255 255 254 253
250 249 248 249 244 233 240 245 247 247 240 231 234 242 249 252 251 252 253 255 260 259 247 252 262 268 269 266 256 226 227 236 243 247 250 251 251 251
255 251 246 242 246 228 237 244 247 248 250 242 229 237 244 243 233 237 245 250 257 261 255 251 259 265 270 266 261 252 238 234 234 239 241 242 241 244
265 262 259 235 231 231 231 242 248 252 253 251 247 241 236 235 232 226 230 240 250 255 255 248 255 259 263 269 269 264 263 263 248 240 233 232 228 226
273 272 274 282 250 238 235 242 247 250 252 252 249 246 243 238 233 230 226 230 239 250 259 261 260 260 264 267 269 267 261 258 259 261 258 231 221 223
274 277 283 285 276 258 241 237 239 244 245 246 246 246 244 243 241 234 232 232 237 244 248 246 248 252 254 259 265 268 269 266 262 260 258 255 248 235
276 278 266 259 255 257 258 245 241 241 239 242 245 246 245 242 238 236 234 232 235 239 237 237 239 245 249 253 258 262 263 264 262 260 259 258 254 249
305 291 282 277 270 262 256 252 246 240 237 241 244 245 243 240 240 235 233 236 240 243 243 233 230 231 240 250 255 255 257 259 259 259 259 260 258 253
288 280 276 273 271 268 264 260 254 248 244 241 240 241 242 241 241 238 233 234 240 243 244 244 237 232 234 240 237 252 257 259 260 256 255 259 259 254
273 274 274 274 273 271 268 265 261 256 250 246 244 242 241 242 243 241 237 237 240 242 242 241 238 236 239 246 241 222 241 254 258 258 254 253 257 258
276 278 280 280 279 276 273 270 268 266 256 250 245 243 241 240 240 241 239 238 238 240 241 240 238 237 241 250 261 255 220 240 252 256 259 258 257 257
292 289 287 285 283 279 277 276 272 267 261 254 247 243 241 240 240 240 240 238 238 242 242 241 240 237 244 251 256 259 252 225 235 251 259 262 262 260
299 295 291 288 287 284 279 275 271 267 262 255 249 244 241 240 240 240 240 238 236 239 244 245 241 234 237 242 248 256 261 258 236 232 242 252 258 259
304 301 296 291 288 284 280 276 272 268 266 260 253 246 243 241 239 238 239 240 241 242 243 245 243 237 238 242 249 255 259 261 260 255 247 231 231 244
Height
1561 1560 1560 1561 1560 1560 1561 1561 1561 1559 1558 1558 1558 1557 1555 1555 1553 1552 1552 1551 1551 1551 1551 1552 1552 1553 1553 1554 1554 1555 1556 1558 1559 1561 1563 1564 1566 1569
1558 1558 1557 1558 1558 1558 1558 1558 1558 1558 1556 1556 1555 1555 1552 1551 1550 1548 1547 1546 1546 1546 1546 1547 1547 1547 1548 1548 1549 1550 1551 1552 1553 1554 1555 1557 1558 1560
1555 1555 1554 1554 1555 1555 1555 1555 1554 1554 1553 1552 1552 1550 1547 1546 1546 1545 1544 1543 1543 1541 1541 1541 1541 1542 1542 1542 1543 1544 1544 1545 1546 1546 1547 1549 1550 1553
1552 1552 1551 1551 1550 1551 1551 1551 1550 1550 1549 1548 1547 1546 1545 1542 1541 1539 1540 1540 1539 1537 1535 1535 1535 1535 1536 1536 1536 1537 1537 1538 1538 1539 1540 1541 1542 1544
1548 1548 1547 1547 1546 1547 1546 1546 1546 1546 1544 1543 1542 1542 1540 1539 1537 1536 1535 1533 1533 1533 1531 1529 1529 1529 1529 1529 1529 1530 1530 1530 1531 1531 1532 1533 1534 1535
1543 1543 1542 1542 1542 1541 1541 1541 1541 1541 1540 1538 1537 1537 1536 1534 1533 1532 1531 1530 1528 1528 1527 1525 1523 1522 1522 1522 1522 1522 1522 1523 1523 1523 1524 1525 1526 1527
1538 1537 1537 1536 1536 1536 1536 1536 1536 1535 1535 1534 1532 1532 1531 1530 1529 1528 1527 1525 1524 1523 1521 1520 1519 1518 1517 1515 1515 1515 1515 1515 1515 1516 1516 1517 1518 1519
1531 1531 1530 1529 1529 1529 1528 1529 1529 1528 1528 1528 1527 1526 1525 1524 1523 1522 1522 1520 1519 1519 1517 1515 1514 1512 1511 1511 1510 1508 1508 1508 1508 1508 1508 1509 1509 1510
1524 1523 1523 1523 1522 1521 1520 1520 1520 1519 1519 1519 1519 1518 1518 1518 1517 1516 1515 1514 1513 1513 1511 1509 1508 1506 1505 1504 1503 1501 1500 1500 1500 1500 1500 1501 1501 1502
1515 1515 1514 1514 1514 1514 1513 1512 1511 1510 1510 1509 1509 1509 1510 1510 1509 1509 1508 1507 1505 1504 1504 1502 1501 1500 1498 1497 1495 1493 1492 1492 1492 1491 1492 1492 1493 1493
1506 1506 1505 1505 1505 1505 1504 1503 1502 1502 1501 1500 1500 1500 1500 1501 1501 1502 1501 1501 1499 1498 1498 1496 1494 1493 1492 1490 1488 1486 1484 1483 1483 1483 1483 1483 1484 1484
1497 1496 1495 1495 1495 1495 1494 1493 1492 1492 1493 1493 1491 1490 1490 1490 1491 1491 1492 1492 1491 1490 1490 1489 1488 1487 1485 1483 1482 1481 1478 1476 1475 1474 1474 1475 1475 1475
1488 1487 1487 1486 1485 1484 1484 1483 1482 1483 1483 1483 1482 1481 1480 1480 1480 1480 1480 1481 1482 1481 1483 1482 1481 1480 1479 1477 1476 1475 1473 1472 1470 1468 1467 1466 1467 1467
1477 1477 1477 1476 1474 1473 1472 1471 1472 1472 1472 1472 1472 1471 1471 1471 1471 1471 1471 1470 1471 1471 1473 1474 1473 1472 1471 1470 1468 1467 1466 1465 1464 1462 1462 1460 1459 1458
1468 1467 1465 1464 1462 1461 1460 1460 1460 1460 1459 1459 1459 1459 1460 1461 1462 1462 1461 1461 1461 1461 1462 1462 1462 1463 1463 1462 1460 1460 1459 1458 1457 1456 1454 1454 1453 1452
1460 1457 1455 1452 1451 1449 1448 1447 1446 1446 1446 1446 1447 1448 1449 1450 1450 1451 1452 1452 1452 1451 1451 1451 1451 1452 1453 1453 1452 1451 1451 1450 1449 1448 1447 1446 1445 1445
1451 1448 1446 1444 1441 1439 1438 1436 1435 1434 1434 1434 1435 1436 1437 1438 1439 1440 1440 1441 1442 1442 1443 1443 1442 1442 1442 1443 1443 1442 1442 1441 1441 1440 1439 1438 1437 1436
1442 1438 1436 1434 1432 1429 1428 1426 1425 1424 1423 1423 1423 1424 1425 1426 1427 1429 1429 1430 1431 1432 1433 1434 1435 1434 1434 1432 1433 1432 1433 1433 1432 1432 1431 1430 1428 1428
1433 1429 1427 1424 1422 1419 1417 1415 1414 1413 1413 1412 1412 1413 1414 1415 1417 1418 1419 1420 1421 1421 1422 1424 1425 1425 1425 1423 1423 1424 1423 1423 1424 1423 1422 1421 1420 1420
1424 1421 1418 1415 1412 1410 1407 1405 1404 1403 1402 1402 1402 1402 1403 1404 1406 1407 1408 1410 1411 1412 1413 1414 1415 1415 1415 1415 1415 1416 1415 1415 1415 1414 1414 1413 1412 1412
1416 1413 1409 1406 1403 1400 1398 1396 1394 1393 1392 1392 1391 1392 1393 1395 1395 1397 1398 1400 1401 1402 1403 1404 1405 1406 1407 1407 1407 1406 1407 1406 1406 1406 1406 1406 1405 1404
1408 1404 1401 1398 1395 1392 1389 1387 1385 1384 1383 1382 1382 1383 1384 1385 1386 1387 1389 1390 1391 1392 1393 1395 1396 1397 1398 1398 1397 1397 1398 1398 1397 1396 1396 1396 1396 1396
1401 1397 1393 1390 1387 1384 1381 1379 1377 1376 1375 1374 1374 1374 1375 1376 1377 1378 1380 1381 1382 1383 1384 1386 1387 1388 1388 1389 1389 1389 1388 1388 1388 1387 1386 1386 1386 1386